Wetterdaten: Woche 27.01.25 - 02.02.25 (KW5)
Datum Zeit Temp. I. Temp. A. Feuchte I. Feuchte A. Luftdruck Regen Wind Richtung Sonnenschein Solar Taupunkt Windchill Windböen
27.01.2025 00:00 21,4 °C 4,9 °C 50 % 79 % 1003,3 hPa 0,0 l/m² 9,4 km/h (2 Bft) SO 0,00 h 0 W/m² 1,5 °C 2,5 °C 13,3 km/h (3 Bft)
27.01.2025 01:00 21,5 °C 5,3 °C 50 % 78 % 1002,7 hPa 0,0 l/m² 12,7 km/h (3 Bft) S-SO 0,00 h 0 W/m² 1,8 °C 0,8 °C 17,1 km/h (3 Bft)
27.01.2025 02:00 21,4 °C 5,8 °C 50 % 76 % 1002,3 hPa 0,0 l/m² 8,9 km/h (2 Bft) O-SO 0,00 h 0 W/m² 1,9 °C 3,7 °C 12,3 km/h (2 Bft)
27.01.2025 03:00 21,4 °C 6,6 °C 50 % 73 % 1001,0 hPa 0,0 l/m² 12,1 km/h (2 Bft) SO 0,00 h 0 W/m² 2,1 °C 2,7 °C 16,3 km/h (3 Bft)
27.01.2025 04:00 21,4 °C 7,1 °C 50 % 73 % 999,8 hPa 0,0 l/m² 19,4 km/h (3 Bft) SO 0,00 h 0 W/m² 2,5 °C -0,1 °C 26,1 km/h (4 Bft)
27.01.2025 05:00 21,4 °C 7,7 °C 50 % 72 % 998,9 hPa 0,0 l/m² 18,5 km/h (3 Bft) SO 0,00 h 0 W/m² 3,0 °C 0,9 °C 24,8 km/h (4 Bft)
27.01.2025 06:00 21,4 °C 7,6 °C 50 % 77 % 997,8 hPa 0,0 l/m² 19,0 km/h (3 Bft) SO 0,00 h 0 W/m² 3,9 °C 0,6 °C 25,1 km/h (4 Bft)
27.01.2025 07:00 21,3 °C 7,5 °C 50 % 81 % 997,0 hPa 0,0 l/m² 19,4 km/h (3 Bft) SO 0,00 h 0 W/m² 4,5 °C 0,3 °C 26,2 km/h (4 Bft)
27.01.2025 08:00 21,4 °C 8,1 °C 50 % 83 % 996,6 hPa 0,0 l/m² 21,2 km/h (4 Bft) S-SO 0,00 h 18 W/m² 5,4 °C 0,5 °C 29,0 km/h (5 Bft)
27.01.2025 09:00 21,4 °C 9,7 °C 50 % 82 % 996,7 hPa 0,0 l/m² 26,5 km/h (4 Bft) S 0,42 h 47 W/m² 6,7 °C 1,1 °C 37,8 km/h (5 Bft)
27.01.2025 10:00 21,3 °C 10,2 °C 50 % 81 % 997,3 hPa 0,0 l/m² 17,6 km/h (3 Bft) S-SO 0,15 h 37 W/m² 7,1 °C 4,5 °C 24,3 km/h (4 Bft)
27.01.2025 11:00 21,3 °C 11,0 °C 50 % 79 % 997,1 hPa 0,0 l/m² 17,4 km/h (3 Bft) S-SO 1,00 h 142 W/m² 7,5 °C 5,5 °C 24,1 km/h (4 Bft)
27.01.2025 12:00 21,2 °C 12,0 °C 50 % 77 % 996,8 hPa 0,0 l/m² 17,1 km/h (3 Bft) S-SO 0,78 h 104 W/m² 8,1 °C 6,9 °C 22,8 km/h (4 Bft)
27.01.2025 13:00 21,3 °C 12,1 °C 50 % 79 % 996,5 hPa 0,0 l/m² 18,2 km/h (3 Bft) S 0,87 h 99 W/m² 8,5 °C 6,6 °C 24,9 km/h (4 Bft)
27.01.2025 14:00 21,3 °C 12,4 °C 50 % 79 % 996,3 hPa 0,0 l/m² 20,7 km/h (4 Bft) S-SO 0,98 h 134 W/m² 8,9 °C 6,3 °C 29,6 km/h (5 Bft)
27.01.2025 15:00 21,3 °C 12,1 °C 50 % 79 % 995,7 hPa 0,0 l/m² 20,0 km/h (4 Bft) S 0,53 h 52 W/m² 8,6 °C 6,0 °C 27,4 km/h (5 Bft)
27.01.2025 16:00 21,2 °C 11,8 °C 50 % 78 % 996,2 hPa 0,0 l/m² 13,7 km/h (3 Bft) S 0,00 h 23 W/m² 8,2 °C 7,9 °C 19,0 km/h (3 Bft)
27.01.2025 17:00 21,2 °C 11,0 °C 50 % 80 % 996,5 hPa 0,0 l/m² 6,9 km/h (2 Bft) S 0,00 h 0 W/m² 7,6 °C 9,9 °C 10,6 km/h (2 Bft)
27.01.2025 18:00 21,2 °C 10,1 °C 50 % 83 % 997,1 hPa 0,0 l/m² 7,4 km/h (2 Bft) SO 0,00 h 0 W/m² 7,3 °C 8,6 °C 10,5 km/h (2 Bft)
27.01.2025 19:00 21,1 °C 11,0 °C 50 % 81 % 997,8 hPa 0,0 l/m² 11,9 km/h (2 Bft) S-SW 0,00 h 0 W/m² 7,8 °C 7,6 °C 16,0 km/h (3 Bft)
27.01.2025 20:00 21,2 °C 9,5 °C 50 % 82 % 997,8 hPa 0,0 l/m² 3,2 km/h (1 Bft) SO 0,00 h 0 W/m² 6,6 °C 9,5 °C 4,8 km/h (1 Bft)
27.01.2025 21:00 21,2 °C 8,3 °C 50 % 86 % 998,2 hPa 0,0 l/m² 2,7 km/h (1 Bft) SO 0,00 h 0 W/m² 6,0 °C 8,2 °C 4,9 km/h (1 Bft)
27.01.2025 22:00 21,2 °C 9,0 °C 50 % 84 % 998,5 hPa 0,0 l/m² 11,6 km/h (2 Bft) S 0,00 h 0 W/m² 6,4 °C 5,7 °C 15,7 km/h (3 Bft)
27.01.2025 23:00 21,2 °C 9,9 °C 50 % 79 % 998,9 hPa 0,0 l/m² 13,7 km/h (3 Bft) S 0,00 h 0 W/m² 6,4 °C 5,8 °C 18,7 km/h (3 Bft)
28.01.2025 00:00 21,2 °C 8,6 °C 50 % 81 % 998,5 hPa 0,0 l/m² 7,1 km/h (2 Bft) SO 0,00 h 0 W/m² 5,5 °C 7,6 °C 10,6 km/h (2 Bft)
28.01.2025 01:00 21,2 °C 7,7 °C 50 % 82 % 998,3 hPa 0,0 l/m² 7,2 km/h (2 Bft) S-SO 0,00 h 0 W/m² 4,9 °C 6,4 °C 10,5 km/h (2 Bft)
28.01.2025 02:00 21,2 °C 7,3 °C 50 % 83 % 998,1 hPa 0,0 l/m² 7,5 km/h (2 Bft) S-SO 0,00 h 0 W/m² 4,7 °C 5,9 °C 11,3 km/h (2 Bft)
28.01.2025 03:00 21,2 °C 6,6 °C 50 % 84 % 998,1 hPa 0,0 l/m² 5,9 km/h (2 Bft) O 0,00 h 0 W/m² 4,0 °C 5,9 °C 8,3 km/h (2 Bft)
28.01.2025 04:00 21,3 °C 6,1 °C 50 % 86 % 997,6 hPa 0,0 l/m² 4,6 km/h (1 Bft) N-NO 0,00 h 0 W/m² 3,9 °C 5,7 °C 7,0 km/h (2 Bft)
28.01.2025 05:00 21,2 °C 5,4 °C 50 % 86 % 997,6 hPa 0,0 l/m² 2,6 km/h (1 Bft) O-NO 0,00 h 0 W/m² 3,3 °C 5,4 °C 4,8 km/h (1 Bft)
28.01.2025 06:00 21,2 °C 4,9 °C 50 % 88 % 997,4 hPa 0,0 l/m² 5,0 km/h (1 Bft) O 0,00 h 0 W/m² 3,0 °C 4,1 °C 7,9 km/h (2 Bft)
28.01.2025 07:00 21,2 °C 4,5 °C 50 % 89 % 997,7 hPa 0,0 l/m² 0,8 km/h (0 Bft) O 0,00 h 0 W/m² 2,8 °C 4,5 °C 1,9 km/h (1 Bft)
28.01.2025 08:00 21,2 °C 4,4 °C 49 % 91 % 998,6 hPa 0,0 l/m² 0,6 km/h (0 Bft) O 0,00 h 12 W/m² 3,0 °C 4,4 °C 2,0 km/h (1 Bft)
28.01.2025 09:00 21,2 °C 5,1 °C 49 % 91 % 997,9 hPa 0,0 l/m² 1,7 km/h (1 Bft) O 0,00 h 35 W/m² 3,8 °C 5,1 °C 3,3 km/h (1 Bft)
28.01.2025 10:00 21,2 °C 5,9 °C 49 % 91 % 997,8 hPa 0,0 l/m² 0,2 km/h (0 Bft) O 0,33 h 50 W/m² 4,5 °C 5,9 °C 0,5 km/h (0 Bft)
28.01.2025 11:00 21,2 °C 6,6 °C 49 % 91 % 997,6 hPa 0,4 l/m² 0,1 km/h (0 Bft) O 0,10 h 42 W/m² 5,2 °C 6,6 °C 0,5 km/h (0 Bft)
28.01.2025 12:00 21,2 °C 7,1 °C 49 % 91 % 997,3 hPa 0,2 l/m² 0,1 km/h (0 Bft) O 0,98 h 78 W/m² 5,8 °C 7,1 °C 0,5 km/h (0 Bft)
28.01.2025 13:00 21,2 °C 7,9 °C 49 % 92 % 997,1 hPa 0,0 l/m² 3,6 km/h (1 Bft) O 1,00 h 94 W/m² 6,7 °C 7,9 °C 5,3 km/h (1 Bft)
28.01.2025 14:00 21,2 °C 7,8 °C 49 % 92 % 997,4 hPa 0,0 l/m² 6,3 km/h (2 Bft) SO 0,15 h 39 W/m² 6,6 °C 7,3 °C 9,3 km/h (2 Bft)
28.01.2025 15:00 21,2 °C 7,7 °C 49 % 92 % 997,4 hPa 0,0 l/m² 5,9 km/h (2 Bft) SO 0,00 h 35 W/m² 6,5 °C 7,2 °C 9,2 km/h (2 Bft)
28.01.2025 16:00 21,2 °C 7,4 °C 49 % 91 % 997,4 hPa 0,0 l/m² 6,1 km/h (2 Bft) SO 0,00 h 13 W/m² 6,1 °C 6,9 °C 8,9 km/h (2 Bft)
28.01.2025 17:00 21,1 °C 7,0 °C 50 % 90 % 998,0 hPa 0,0 l/m² 6,2 km/h (2 Bft) SO 0,00 h 0 W/m² 5,4 °C 6,3 °C 9,2 km/h (2 Bft)
28.01.2025 18:00 21,1 °C 6,3 °C 50 % 88 % 998,4 hPa 0,0 l/m² 4,9 km/h (1 Bft) SO 0,00 h 0 W/m² 4,5 °C 6,1 °C 7,6 km/h (2 Bft)
28.01.2025 19:00 21,0 °C 6,0 °C 50 % 89 % 998,5 hPa 0,0 l/m² 5,6 km/h (2 Bft) S-SO 0,00 h 0 W/m² 4,3 °C 5,8 °C 8,6 km/h (2 Bft)
28.01.2025 20:00 21,1 °C 5,1 °C 49 % 88 % 998,5 hPa 0,0 l/m² 4,2 km/h (1 Bft) O 0,00 h 0 W/m² 3,3 °C 5,1 °C 5,9 km/h (2 Bft)
28.01.2025 21:00 21,2 °C 4,4 °C 49 % 90 % 998,6 hPa 0,0 l/m² 5,9 km/h (2 Bft) SO 0,00 h 0 W/m² 2,8 °C 3,5 °C 9,2 km/h (2 Bft)
28.01.2025 22:00 21,2 °C 4,2 °C 49 % 89 % 998,5 hPa 0,0 l/m² 7,4 km/h (2 Bft) SO 0,00 h 0 W/m² 2,7 °C 2,6 °C 10,7 km/h (2 Bft)
28.01.2025 23:00 21,1 °C 4,4 °C 49 % 89 % 998,7 hPa 0,0 l/m² 7,7 km/h (2 Bft) S-SO 0,00 h 0 W/m² 2,7 °C 2,7 °C 11,2 km/h (2 Bft)
29.01.2025 00:00 21,1 °C 4,8 °C 49 % 89 % 998,9 hPa 0,0 l/m² 11,2 km/h (2 Bft) S-SO 0,00 h 0 W/m² 3,1 °C 1,1 °C 16,4 km/h (3 Bft)
29.01.2025 01:00 21,2 °C 6,0 °C 49 % 86 % 998,6 hPa 0,0 l/m² 17,0 km/h (3 Bft) S-SO 0,00 h 0 W/m² 3,8 °C -0,6 °C 22,3 km/h (4 Bft)
29.01.2025 02:00 21,1 °C 5,9 °C 49 % 85 % 998,7 hPa 0,0 l/m² 13,8 km/h (3 Bft) S 0,00 h 0 W/m² 3,6 °C 0,9 °C 19,6 km/h (3 Bft)
29.01.2025 03:00 21,1 °C 5,4 °C 49 % 86 % 998,6 hPa 0,0 l/m² 17,5 km/h (3 Bft) S 0,00 h 0 W/m² 3,2 °C -1,5 °C 24,2 km/h (4 Bft)
29.01.2025 04:00 21,1 °C 5,5 °C 49 % 86 % 998,7 hPa 0,0 l/m² 12,5 km/h (2 Bft) S 0,00 h 0 W/m² 3,4 °C 1,1 °C 17,9 km/h (3 Bft)
29.01.2025 05:00 21,1 °C 5,6 °C 49 % 86 % 999,0 hPa 0,0 l/m² 10,8 km/h (2 Bft) S-SO 0,00 h 0 W/m² 3,4 °C 2,3 °C 15,6 km/h (3 Bft)
29.01.2025 06:00 21,1 °C 5,7 °C 49 % 86 % 999,2 hPa 0,0 l/m² 5,4 km/h (2 Bft) NO 0,00 h 0 W/m² 3,5 °C 5,0 °C 8,5 km/h (2 Bft)
29.01.2025 07:00 21,0 °C 5,8 °C 49 % 87 % 999,6 hPa 0,0 l/m² 7,1 km/h (2 Bft) S-SO 0,00 h 6 W/m² 3,8 °C 4,4 °C 10,5 km/h (2 Bft)
29.01.2025 08:00 21,1 °C 6,5 °C 49 % 86 % 1000,0 hPa 0,2 l/m² 16,1 km/h (3 Bft) S 0,00 h 23 W/m² 4,4 °C 0,5 °C 22,1 km/h (4 Bft)
29.01.2025 09:00 21,1 °C 7,2 °C 49 % 86 % 1001,0 hPa 0,0 l/m² 14,2 km/h (3 Bft) S-SW 0,73 h 83 W/m² 5,1 °C 2,2 °C 18,8 km/h (3 Bft)
29.01.2025 10:00 21,0 °C 8,6 °C 49 % 84 % 1001,7 hPa 0,0 l/m² 15,4 km/h (3 Bft) S-SW 1,00 h 135 W/m² 6,0 °C 3,4 °C 21,0 km/h (4 Bft)
29.01.2025 11:00 21,1 °C 10,0 °C 49 % 80 % 1002,4 hPa 0,0 l/m² 21,3 km/h (4 Bft) W-SW 1,00 h 253 W/m² 6,7 °C 2,9 °C 29,2 km/h (5 Bft)
29.01.2025 12:00 21,1 °C 9,5 °C 49 % 78 % 1003,2 hPa 0,0 l/m² 23,5 km/h (4 Bft) SW 0,67 h 60 W/m² 5,9 °C 1,7 °C 31,2 km/h (5 Bft)
29.01.2025 13:00 21,1 °C 10,0 °C 49 % 74 % 1004,3 hPa 0,0 l/m² 28,9 km/h (5 Bft) SW 0,93 h 202 W/m² 5,5 °C 1,0 °C 38,0 km/h (6 Bft)
29.01.2025 14:00 21,0 °C 8,9 °C 49 % 76 % 1005,5 hPa 0,0 l/m² 20,5 km/h (4 Bft) SW 0,95 h 182 W/m² 4,9 °C 1,9 °C 26,6 km/h (4 Bft)
29.01.2025 15:00 20,9 °C 8,6 °C 49 % 76 % 1006,4 hPa 0,0 l/m² 15,0 km/h (3 Bft) SW 0,95 h 91 W/m² 4,6 °C 3,5 °C 20,1 km/h (4 Bft)
29.01.2025 16:00 20,9 °C 7,6 °C 49 % 78 % 1007,2 hPa 0,0 l/m² 15,6 km/h (3 Bft) SW 0,00 h 25 W/m² 4,1 °C 2,1 °C 20,4 km/h (4 Bft)
29.01.2025 17:00 20,9 °C 5,8 °C 49 % 82 % 1007,9 hPa 0,0 l/m² 7,0 km/h (2 Bft) SW 0,00 h 0 W/m² 3,0 °C 5,1 °C 8,8 km/h (2 Bft)
29.01.2025 18:00 20,9 °C 5,1 °C 49 % 85 % 1008,6 hPa 0,0 l/m² 5,0 km/h (1 Bft) S-SW 0,00 h 0 W/m² 2,9 °C 4,2 °C 7,3 km/h (2 Bft)
29.01.2025 19:00 20,9 °C 6,0 °C 49 % 86 % 1009,2 hPa 0,0 l/m² 9,7 km/h (2 Bft) S 0,00 h 0 W/m² 3,9 °C 3,4 °C 12,7 km/h (3 Bft)
29.01.2025 20:00 20,9 °C 6,3 °C 49 % 87 % 1010,1 hPa 0,2 l/m² 10,3 km/h (2 Bft) S-SW 0,00 h 0 W/m² 4,2 °C 3,4 °C 13,1 km/h (3 Bft)
29.01.2025 21:00 20,9 °C 6,2 °C 49 % 87 % 1010,7 hPa 0,0 l/m² 2,7 km/h (1 Bft) S 0,00 h 0 W/m² 4,2 °C 6,2 °C 4,0 km/h (1 Bft)
29.01.2025 22:00 21,0 °C 5,7 °C 49 % 88 % 1011,0 hPa 0,0 l/m² 0,9 km/h (0 Bft) S 0,00 h 0 W/m² 3,8 °C 5,7 °C 1,9 km/h (1 Bft)
29.01.2025 23:00 21,0 °C 4,8 °C 49 % 86 % 1011,3 hPa 0,0 l/m² 2,0 km/h (1 Bft) S 0,00 h 0 W/m² 2,7 °C 4,8 °C 3,5 km/h (1 Bft)
30.01.2025 00:00 20,9 °C 3,5 °C 49 % 87 % 1011,6 hPa 0,0 l/m² 0,2 km/h (0 Bft) S 0,00 h 0 W/m² 1,5 °C 3,5 °C 1,1 km/h (0 Bft)
30.01.2025 01:00 21,0 °C 2,2 °C 49 % 87 % 1012,0 hPa 0,0 l/m² 0,0 km/h (0 Bft) S 0,00 h 0 W/m² 0,3 °C 2,2 °C 0,5 km/h (0 Bft)
30.01.2025 02:00 21,1 °C 1,6 °C 49 % 89 % 1012,5 hPa 0,0 l/m² 0,1 km/h (0 Bft) S 0,00 h 0 W/m² 0,1 °C 1,6 °C 0,3 km/h (0 Bft)
30.01.2025 03:00 21,0 °C 1,4 °C 49 % 90 % 1012,5 hPa 0,0 l/m² 0,6 km/h (0 Bft) S 0,00 h 0 W/m² -0,0 °C 1,4 °C 1,6 km/h (1 Bft)
30.01.2025 04:00 20,9 °C 1,5 °C 48 % 91 % 1012,8 hPa 0,0 l/m² 0,1 km/h (0 Bft) S 0,00 h 0 W/m² 0,2 °C 1,5 °C 0,4 km/h (0 Bft)
30.01.2025 05:00 21,0 °C 2,0 °C 48 % 92 % 1013,2 hPa 0,0 l/m² 0,8 km/h (0 Bft) S 0,00 h 0 W/m² 0,9 °C 2,0 °C 1,9 km/h (1 Bft)
30.01.2025 06:00 21,0 °C 2,4 °C 48 % 93 % 1013,5 hPa 0,0 l/m² 1,5 km/h (1 Bft) S 0,00 h 0 W/m² 1,4 °C 2,4 °C 3,0 km/h (1 Bft)
30.01.2025 07:00 20,9 °C 3,0 °C 48 % 93 % 1014,0 hPa 0,0 l/m² 0,0 km/h (0 Bft) S 0,00 h 0 W/m² 1,9 °C 3,0 °C 0,1 km/h (0 Bft)
30.01.2025 08:00 20,9 °C 3,1 °C 48 % 93 % 1014,4 hPa 0,0 l/m² 0,1 km/h (0 Bft) S 0,00 h 10 W/m² 2,1 °C 3,1 °C 0,3 km/h (0 Bft)
30.01.2025 09:00 21,0 °C 3,6 °C 48 % 93 % 1014,3 hPa 0,0 l/m² 1,5 km/h (1 Bft) S 0,52 h 52 W/m² 2,6 °C 3,6 °C 2,5 km/h (1 Bft)
30.01.2025 10:00 20,9 °C 4,7 °C 48 % 93 % 1014,4 hPa 0,0 l/m² 1,0 km/h (0 Bft) S 1,00 h 98 W/m² 3,6 °C 4,7 °C 2,4 km/h (1 Bft)
30.01.2025 11:00 20,9 °C 5,7 °C 48 % 91 % 1014,7 hPa 0,0 l/m² 0,4 km/h (0 Bft) S 1,02 h 118 W/m² 4,4 °C 5,7 °C 1,1 km/h (1 Bft)
30.01.2025 12:00 20,8 °C 7,0 °C 48 % 86 % 1014,6 hPa 0,0 l/m² 1,8 km/h (1 Bft) S 1,00 h 137 W/m² 4,8 °C 6,9 °C 3,5 km/h (1 Bft)
30.01.2025 13:00 20,9 °C 8,0 °C 48 % 82 % 1014,6 hPa 0,0 l/m² 5,5 km/h (2 Bft) S 1,00 h 165 W/m² 5,1 °C 7,8 °C 7,7 km/h (2 Bft)
30.01.2025 14:00 21,0 °C 8,4 °C 48 % 82 % 1014,4 hPa 0,0 l/m² 3,2 km/h (1 Bft) S 1,00 h 123 W/m² 5,4 °C 8,4 °C 5,1 km/h (1 Bft)
30.01.2025 15:00 21,0 °C 8,7 °C 48 % 82 % 1014,6 hPa 0,0 l/m² 4,9 km/h (1 Bft) S 0,80 h 77 W/m² 5,8 °C 8,6 °C 6,9 km/h (2 Bft)
30.01.2025 16:00 20,9 °C 8,3 °C 48 % 83 % 1014,7 hPa 0,0 l/m² 5,3 km/h (1 Bft) S 0,00 h 20 W/m² 5,7 °C 8,2 °C 7,5 km/h (2 Bft)
30.01.2025 17:00 20,9 °C 7,8 °C 48 % 84 % 1015,1 hPa 0,0 l/m² 3,9 km/h (1 Bft) S 0,00 h 0 W/m² 5,2 °C 7,8 °C 5,5 km/h (2 Bft)
30.01.2025 18:00 20,8 °C 7,6 °C 48 % 84 % 1015,2 hPa 0,0 l/m² 10,0 km/h (2 Bft) S-SW 0,00 h 0 W/m² 5,1 °C 5,0 °C 12,0 km/h (2 Bft)
30.01.2025 19:00 20,8 °C 7,6 °C 48 % 84 % 1015,6 hPa 0,0 l/m² 2,9 km/h (1 Bft) SW 0,00 h 0 W/m² 5,1 °C 7,6 °C 3,9 km/h (1 Bft)
30.01.2025 20:00 20,8 °C 7,2 °C 48 % 86 % 1015,7 hPa 0,0 l/m² 4,3 km/h (1 Bft) SW 0,00 h 0 W/m² 4,9 °C 7,1 °C 5,6 km/h (2 Bft)
30.01.2025 21:00 20,9 °C 7,0 °C 48 % 85 % 1016,3 hPa 0,0 l/m² 4,3 km/h (1 Bft) S-SW 0,00 h 0 W/m² 4,7 °C 6,1 °C 7,2 km/h (2 Bft)
30.01.2025 22:00 20,9 °C 5,8 °C 48 % 88 % 1017,3 hPa 0,6 l/m² 11,0 km/h (2 Bft) NW 0,00 h 0 W/m² 4,0 °C 2,5 °C 17,8 km/h (3 Bft)
30.01.2025 23:00 20,9 °C 4,8 °C 49 % 90 % 1018,2 hPa 1,2 l/m² 11,8 km/h (2 Bft) NW 0,00 h 0 W/m² 3,3 °C 0,8 °C 20,8 km/h (4 Bft)
31.01.2025 00:00 21,0 °C 3,4 °C 48 % 91 % 1019,2 hPa 0,8 l/m² 11,7 km/h (2 Bft) NW 0,00 h 0 W/m² 2,1 °C -0,5 °C 19,2 km/h (3 Bft)
31.01.2025 01:00 21,0 °C 2,4 °C 48 % 91 % 1020,1 hPa 0,6 l/m² 9,8 km/h (2 Bft) W 0,00 h 0 W/m² 1,0 °C -0,6 °C 14,1 km/h (3 Bft)
31.01.2025 02:00 20,9 °C 2,3 °C 48 % 92 % 1020,8 hPa 0,6 l/m² 5,2 km/h (1 Bft) W 0,00 h 0 W/m² 1,1 °C 1,8 °C 8,4 km/h (2 Bft)
31.01.2025 03:00 20,9 °C 2,7 °C 48 % 93 % 1021,3 hPa 0,2 l/m² 6,0 km/h (2 Bft) W 0,00 h 0 W/m² 1,7 °C 2,4 °C 9,2 km/h (2 Bft)
31.01.2025 04:00 21,0 °C 2,7 °C 48 % 93 % 1021,9 hPa 0,0 l/m² 4,6 km/h (1 Bft) W-SW 0,00 h 0 W/m² 1,7 °C 2,3 °C 7,2 km/h (2 Bft)
31.01.2025 05:00 20,9 °C 2,7 °C 48 % 93 % 1022,6 hPa 0,0 l/m² 0,7 km/h (0 Bft) W-SW 0,00 h 0 W/m² 1,6 °C 2,7 °C 2,1 km/h (1 Bft)
31.01.2025 06:00 20,9 °C 1,8 °C 48 % 92 % 1023,5 hPa 0,0 l/m² 1,6 km/h (1 Bft) W-SW 0,00 h 0 W/m² 0,7 °C 1,7 °C 3,7 km/h (1 Bft)
31.01.2025 07:00 20,8 °C 1,8 °C 48 % 92 % 1024,4 hPa 0,0 l/m² 2,2 km/h (1 Bft) SW 0,00 h 6 W/m² 0,7 °C 1,8 °C 4,1 km/h (1 Bft)
31.01.2025 08:00 20,8 °C 1,5 °C 48 % 92 % 1025,2 hPa 0,0 l/m² 2,0 km/h (1 Bft) SW 0,33 h 37 W/m² 0,3 °C 1,5 °C 4,0 km/h (1 Bft)
31.01.2025 09:00 20,9 °C 3,0 °C 48 % 90 % 1026,0 hPa 0,0 l/m² 9,8 km/h (2 Bft) SW 1,00 h 171 W/m² 1,5 °C -0,0 °C 13,7 km/h (3 Bft)
31.01.2025 10:00 20,9 °C 4,7 °C 48 % 86 % 1026,8 hPa 0,0 l/m² 14,8 km/h (3 Bft) SW 1,00 h 287 W/m² 2,6 °C -1,0 °C 20,0 km/h (4 Bft)
31.01.2025 11:00 20,9 °C 5,7 °C 48 % 79 % 1027,4 hPa 0,0 l/m² 20,3 km/h (4 Bft) W-SW 1,00 h 354 W/m² 2,3 °C -2,3 °C 27,0 km/h (5 Bft)
31.01.2025 12:00 20,9 °C 6,1 °C 46 % 75 % 1027,6 hPa 0,0 l/m² 19,0 km/h (3 Bft) SW 1,00 h 295 W/m² 2,0 °C -1,2 °C 24,6 km/h (4 Bft)
31.01.2025 13:00 21,1 °C 5,8 °C 45 % 74 % 1027,7 hPa 0,0 l/m² 15,5 km/h (3 Bft) W-SW 1,00 h 123 W/m² 1,5 °C -0,2 °C 20,6 km/h (4 Bft)
31.01.2025 14:00 21,2 °C 5,7 °C 47 % 70 % 1028,0 hPa 0,0 l/m² 15,1 km/h (3 Bft) W-SW 1,00 h 99 W/m² 0,8 °C -0,0 °C 19,7 km/h (3 Bft)
31.01.2025 15:00 21,2 °C 5,5 °C 46 % 69 % 1028,3 hPa 0,0 l/m² 12,6 km/h (3 Bft) W-SW 0,67 h 59 W/m² 0,4 °C 1,2 °C 16,8 km/h (3 Bft)
31.01.2025 16:00 21,1 °C 4,6 °C 45 % 72 % 1028,6 hPa 0,0 l/m² 6,3 km/h (2 Bft) W 0,00 h 18 W/m² 0,1 °C 3,4 °C 9,0 km/h (2 Bft)
31.01.2025 17:00 21,1 °C 3,7 °C 45 % 80 % 1029,4 hPa 0,0 l/m² 3,4 km/h (1 Bft) W 0,00 h 0 W/m² 0,6 °C 3,6 °C 4,9 km/h (1 Bft)
31.01.2025 18:00 21,1 °C 3,6 °C 46 % 83 % 1030,0 hPa 0,0 l/m² 5,9 km/h (2 Bft) SW 0,00 h 0 W/m² 1,0 °C 3,1 °C 7,6 km/h (2 Bft)
31.01.2025 19:00 21,3 °C 3,5 °C 48 % 81 % 1030,5 hPa 0,0 l/m² 5,9 km/h (2 Bft) W-SW 0,00 h 0 W/m² 0,6 °C 2,8 °C 8,4 km/h (2 Bft)
31.01.2025 20:00 21,3 °C 2,6 °C 49 % 84 % 1031,2 hPa 0,0 l/m² 1,2 km/h (1 Bft) W 0,00 h 0 W/m² 0,2 °C 2,6 °C 2,2 km/h (1 Bft)
31.01.2025 21:00 21,4 °C 2,5 °C 50 % 84 % 1031,7 hPa 0,0 l/m² 3,7 km/h (1 Bft) W 0,00 h 0 W/m² 0,1 °C 2,4 °C 5,5 km/h (2 Bft)
31.01.2025 22:00 21,5 °C 2,7 °C 51 % 83 % 1032,0 hPa 0,0 l/m² 3,3 km/h (1 Bft) SW 0,00 h 0 W/m² 0,2 °C 2,7 °C 5,1 km/h (1 Bft)
31.01.2025 23:00 21,3 °C 1,8 °C 51 % 85 % 1032,0 hPa 0,0 l/m² 1,9 km/h (1 Bft) W-SW 0,00 h 0 W/m² -0,5 °C 1,8 °C 3,0 km/h (1 Bft)
01.02.2025 00:00 21,3 °C 0,7 °C 51 % 88 % 1032,4 hPa 0,0 l/m² 2,5 km/h (1 Bft) W-SW 0,00 h 0 W/m² -1,0 °C 0,7 °C 3,6 km/h (1 Bft)
01.02.2025 01:00 21,2 °C 0,4 °C 51 % 89 % 1032,5 hPa 0,0 l/m² 0,0 km/h (0 Bft) W-SW 0,00 h 0 W/m² -1,1 °C 0,4 °C 0,1 km/h (0 Bft)
01.02.2025 02:00 21,2 °C 0,6 °C 51 % 90 % 1032,5 hPa 0,0 l/m² 0,0 km/h (0 Bft) W-SW 0,00 h 0 W/m² -0,8 °C 0,6 °C 0,1 km/h (0 Bft)
01.02.2025 03:00 21,2 °C 0,9 °C 51 % 90 % 1032,5 hPa 0,0 l/m² 0,0 km/h (0 Bft) W-SW 0,00 h 0 W/m² -0,5 °C 0,9 °C 0,1 km/h (0 Bft)
01.02.2025 04:00 21,2 °C 1,0 °C 50 % 90 % 1032,4 hPa 0,0 l/m² 0,0 km/h (0 Bft) W-SW 0,00 h 0 W/m² -0,4 °C 1,0 °C 0,1 km/h (0 Bft)
01.02.2025 05:00 21,2 °C 1,2 °C 50 % 90 % 1032,5 hPa 0,0 l/m² 0,0 km/h (0 Bft) W-SW 0,00 h 0 W/m² -0,3 °C 1,2 °C 0,0 km/h (0 Bft)
01.02.2025 06:00 21,1 °C 1,2 °C 50 % 90 % 1032,7 hPa 0,0 l/m² 0,0 km/h (0 Bft) W-SW 0,00 h 0 W/m² -0,2 °C 1,2 °C 0,0 km/h (0 Bft)
01.02.2025 07:00 21,1 °C 1,2 °C 50 % 90 % 1033,1 hPa 0,0 l/m² 0,0 km/h (0 Bft) W-SW 0,00 h 0 W/m² -0,2 °C 1,2 °C 0,0 km/h (0 Bft)
01.02.2025 08:00 21,1 °C 1,3 °C 51 % 90 % 1033,5 hPa 0,0 l/m² 0,2 km/h (0 Bft) W-SW 0,00 h 12 W/m² -0,1 °C 1,3 °C 0,5 km/h (0 Bft)
01.02.2025 09:00 21,3 °C 1,5 °C 51 % 90 % 1033,8 hPa 0,0 l/m² 1,2 km/h (1 Bft) W-SW 0,07 h 32 W/m² 0,1 °C 1,5 °C 2,0 km/h (1 Bft)
01.02.2025 10:00 21,2 °C 2,0 °C 48 % 90 % 1033,6 hPa 0,0 l/m² 0,0 km/h (0 Bft) W-SW 1,00 h 92 W/m² 0,5 °C 2,0 °C 0,3 km/h (0 Bft)
01.02.2025 11:00 21,1 °C 3,0 °C 45 % 88 % 1033,5 hPa 0,0 l/m² 0,8 km/h (0 Bft) W-SW 1,00 h 120 W/m² 1,3 °C 3,0 °C 1,9 km/h (1 Bft)
01.02.2025 12:00 21,1 °C 3,6 °C 46 % 86 % 1032,9 hPa 0,0 l/m² 0,0 km/h (0 Bft) W-SW 1,00 h 115 W/m² 1,6 °C 3,6 °C 0,2 km/h (0 Bft)
01.02.2025 13:00 21,1 °C 4,0 °C 47 % 85 % 1032,6 hPa 0,0 l/m² 0,0 km/h (0 Bft) W-SW 1,00 h 95 W/m² 1,8 °C 4,0 °C 0,0 km/h (0 Bft)
01.02.2025 14:00 21,2 °C 4,3 °C 48 % 85 % 1032,4 hPa 0,0 l/m² 0,7 km/h (0 Bft) W-SW 0,87 h 67 W/m² 2,0 °C 4,3 °C 1,2 km/h (1 Bft)
01.02.2025 15:00 21,2 °C 4,4 °C 48 % 84 % 1032,0 hPa 0,0 l/m² 0,0 km/h (0 Bft) N 0,00 h 37 W/m² 2,0 °C 4,4 °C 0,1 km/h (0 Bft)
01.02.2025 16:00 21,2 °C 4,3 °C 48 % 85 % 1031,4 hPa 0,0 l/m² 0,1 km/h (0 Bft) N 0,00 h 25 W/m² 2,0 °C 4,3 °C 0,5 km/h (0 Bft)
01.02.2025 17:00 21,3 °C 3,6 °C 50 % 84 % 1031,3 hPa 0,0 l/m² 0,6 km/h (0 Bft) N 0,00 h 5 W/m² 1,1 °C 3,6 °C 1,1 km/h (0 Bft)
01.02.2025 18:00 21,3 °C 2,7 °C 51 % 86 % 1031,5 hPa 0,0 l/m² 0,1 km/h (0 Bft) N 0,00 h 0 W/m² 0,6 °C 2,7 °C 0,3 km/h (0 Bft)
01.02.2025 19:00 21,3 °C 2,3 °C 51 % 87 % 1031,6 hPa 0,0 l/m² 0,5 km/h (0 Bft) N 0,00 h 0 W/m² 0,4 °C 2,3 °C 1,4 km/h (1 Bft)
01.02.2025 20:00 21,6 °C 2,0 °C 51 % 88 % 1031,4 hPa 0,0 l/m² 0,2 km/h (0 Bft) N 0,00 h 0 W/m² 0,3 °C 2,0 °C 0,5 km/h (0 Bft)
01.02.2025 21:00 22,1 °C 1,8 °C 51 % 90 % 1031,2 hPa 0,0 l/m² 0,1 km/h (0 Bft) N 0,00 h 0 W/m² 0,3 °C 1,8 °C 0,2 km/h (0 Bft)
01.02.2025 22:00 22,1 °C 1,4 °C 49 % 90 % 1030,8 hPa 0,0 l/m² 0,6 km/h (0 Bft) N 0,00 h 0 W/m² -0,0 °C 1,4 °C 0,9 km/h (0 Bft)
01.02.2025 23:00 21,7 °C 0,9 °C 49 % 90 % 1030,3 hPa 0,0 l/m² 0,3 km/h (0 Bft) SW 0,00 h 0 W/m² -0,5 °C 0,9 °C 0,6 km/h (0 Bft)
02.02.2025 00:00 21,5 °C 0,1 °C 49 % 91 % 1029,9 hPa 0,0 l/m² 0,0 km/h (0 Bft) SW 0,00 h 0 W/m² -1,2 °C 0,1 °C 0,0 km/h (0 Bft)
02.02.2025 01:00 21,4 °C -0,1 °C 49 % 91 % 1029,4 hPa 0,0 l/m² 0,2 km/h (0 Bft) SW 0,00 h 0 W/m² -1,3 °C -0,1 °C 0,9 km/h (0 Bft)
02.02.2025 02:00 21,4 °C -0,1 °C 49 % 92 % 1028,9 hPa 0,0 l/m² 0,2 km/h (0 Bft) SW 0,00 h 0 W/m² -1,2 °C -0,1 °C 0,5 km/h (0 Bft)
02.02.2025 03:00 21,5 °C -0,6 °C 49 % 92 % 1028,4 hPa 0,0 l/m² 0,0 km/h (0 Bft) O-SO 0,00 h 0 W/m² -1,7 °C -0,6 °C 0,0 km/h (0 Bft)
02.02.2025 04:00 21,4 °C -1,4 °C 49 % 92 % 1027,9 hPa 0,0 l/m² 0,2 km/h (0 Bft) O-SO 0,00 h 0 W/m² -2,5 °C -1,4 °C 0,6 km/h (0 Bft)
02.02.2025 05:00 21,6 °C -1,6 °C 49 % 92 % 1027,7 hPa 0,0 l/m² 0,1 km/h (0 Bft) O-SO 0,00 h 0 W/m² -2,8 °C -1,6 °C 0,6 km/h (0 Bft)
02.02.2025 06:00 21,6 °C -1,7 °C 49 % 93 % 1027,7 hPa 0,0 l/m² 0,0 km/h (0 Bft) O-SO 0,00 h 0 W/m² -2,7 °C -1,7 °C 0,0 km/h (0 Bft)
02.02.2025 07:00 21,6 °C -1,7 °C 49 % 93 % 1028,0 hPa 0,0 l/m² 0,0 km/h (0 Bft) O-SO 0,00 h 8 W/m² -2,7 °C -1,7 °C 0,0 km/h (0 Bft)
02.02.2025 08:00 21,7 °C -2,4 °C 49 % 92 % 1028,0 hPa 0,0 l/m² 0,0 km/h (0 Bft) O-SO 0,12 h 32 W/m² -3,4 °C -2,4 °C 0,0 km/h (0 Bft)
02.02.2025 09:00 21,9 °C -2,0 °C 50 % 93 % 1028,0 hPa 0,0 l/m² 0,0 km/h (0 Bft) O-SO 0,95 h 87 W/m² -3,0 °C -2,0 °C 0,1 km/h (0 Bft)
02.02.2025 10:00 22,1 °C -0,5 °C 48 % 93 % 1027,8 hPa 0,0 l/m² 0,0 km/h (0 Bft) O-SO 1,00 h 216 W/m² -1,5 °C -0,5 °C 0,3 km/h (0 Bft)
02.02.2025 11:00 22,9 °C 2,2 °C 46 % 88 % 1027,4 hPa 0,0 l/m² 0,5 km/h (0 Bft) O-SO 1,00 h 357 W/m² 0,3 °C 2,2 °C 1,6 km/h (1 Bft)
02.02.2025 12:00 23,2 °C 4,4 °C 46 % 69 % 1026,9 hPa 0,0 l/m² 3,9 km/h (1 Bft) S-SW 0,98 h 375 W/m² -0,7 °C 4,2 °C 7,3 km/h (2 Bft)
02.02.2025 13:00 23,0 °C 4,9 °C 47 % 65 % 1026,6 hPa 0,0 l/m² 7,3 km/h (2 Bft) O-SO 1,02 h 336 W/m² -1,1 °C 3,3 °C 10,9 km/h (2 Bft)
02.02.2025 14:00 22,6 °C 4,6 °C 47 % 66 % 1026,2 hPa 0,0 l/m² 7,2 km/h (2 Bft) O-SO 0,98 h 286 W/m² -1,2 °C 3,0 °C 10,7 km/h (2 Bft)
02.02.2025 15:00 22,6 °C 4,4 °C 49 % 67 % 1026,1 hPa 0,0 l/m² 1,5 km/h (1 Bft) SO 1,00 h 148 W/m² -1,2 °C 4,4 °C 3,1 km/h (1 Bft)
02.02.2025 16:00 22,4 °C 3,5 °C 51 % 69 % 1026,3 hPa 0,0 l/m² 3,1 km/h (1 Bft) SO 0,43 h 50 W/m² -1,7 °C 3,5 °C 4,8 km/h (1 Bft)
02.02.2025 17:00 22,2 °C 1,5 °C 52 % 75 % 1026,8 hPa 0,0 l/m² 1,3 km/h (1 Bft) O 0,00 h 6 W/m² -2,5 °C 1,5 °C 1,9 km/h (1 Bft)
02.02.2025 18:00 22,1 °C -0,8 °C 52 % 83 % 1026,9 hPa 0,0 l/m² 0,0 km/h (0 Bft) O 0,00 h 0 W/m² -3,3 °C -0,8 °C 0,1 km/h (0 Bft)
02.02.2025 19:00 22,2 °C -1,8 °C 54 % 87 % 1027,0 hPa 0,0 l/m² 0,0 km/h (0 Bft) O 0,00 h 0 W/m² -3,7 °C -1,8 °C 0,0 km/h (0 Bft)
02.02.2025 20:00 22,2 °C -2,5 °C 55 % 88 % 1027,1 hPa 0,0 l/m² 0,0 km/h (0 Bft) O 0,00 h 0 W/m² -4,2 °C -2,5 °C 0,0 km/h (0 Bft)
02.02.2025 21:00 22,3 °C -3,1 °C 54 % 89 % 1027,4 hPa 0,0 l/m² 0,0 km/h (0 Bft) O 0,00 h 0 W/m² -4,6 °C -3,1 °C 0,1 km/h (0 Bft)
02.02.2025 22:00 22,3 °C -3,7 °C 53 % 90 % 1027,5 hPa 0,0 l/m² 0,0 km/h (0 Bft) O 0,00 h 0 W/m² -5,2 °C -3,7 °C 0,0 km/h (0 Bft)
02.02.2025 23:00 22,1 °C -3,7 °C 53 % 91 % 1027,7 hPa 0,0 l/m² 0,0 km/h (0 Bft) O 0,00 h 0 W/m² -5,0 °C -3,7 °C 0,0 km/h (0 Bft)
Min-Datum _ 30.01.25 02.02.25 01.02.25 02.02.25 27.01.25 - 02.02.25 - - - 02.02.25 31.01.25 02.02.25
_ Min-Zeit 19:18 23:04 10:54 14:11 15:18 - 23:00 - - - 23:04 00:20 23:00
Minimum _ 20,7 °C -4,1 °C 43 % 61 % 995,5 hPa - 0,0 km/h (0 Bft) - - - -5,5 °C -6,1 °C 0,0 km/h (0 Bft)
Max-Datum _ 02.02.25 27.01.25 02.02.25 02.02.25 01.02.25 30.01.25 29.01.25 - 02.02.25 31.01.25 27.01.25 27.01.25 27.01.25
_ Max-Zeit 13:00 14:41 21:00 10:00 09:19 23:04 13:58 - 14:36 12:21 14:12 17:17 09:01
Maximum _ 23,3 °C 12,7 °C 55 % 93 % 1033,9 hPa 1,2 l/m² 39,5 km/h
SW (6 Bft)
- 0,08 h 522 W/m² 9,2 °C 11,2 °C 54,7 km/h
S (7 Bft)
Durchschnitt _ 21,3 °C 4,7 °C 49 % 85 % 1014,4 hPa #5,0 l/m² 6,3 km/h (2 Bft) S #39:17 h 41 W/m² 2,4 °C 3,0 °C 8,9 km/h (2 Bft)
© 2009 Mathias Hoßbach